Weather History for Montreal Mirabel, QC

Change the Weather History Date:

Saturday, May 4, 2013

  Actual Average Record
Temperature  
Mean Temperature 60 °F -  
Max Temperature 75 °F 60 °F 80 °F (1999)
Min Temperature 44 °F 40 °F 33 °F (2002)
Degree Days  
Heating Degree Days 6    
Growing Degree Days 10 (Base 50)    
Moisture  
Dew Point 40 °F    
Average Humidity 48    
Maximum Humidity 81    
Minimum Humidity 27    
Precipitation  
Precipitation 0.00 in - - ()
Sea Level Pressure  
Sea Level Pressure 30.29 in    
Wind  
Wind Speed 3 mph ()    
Max Wind Speed 7 mph    
Max Gust Speed -    
Averages and records for this station are not official NWS values.
T = Trace of Precipitation, MM = Missing Value Source: Averaged Metar Reports

Daily Weather History Graph

Daily Weather History Graph

Search for Another Location

Airport:

Trip Planner

Search our weather history database for the weather conditions in past years. The results will help you decide how hot, cold, wet, or windy it might be!

Date:

Astronomy

May. 04, 2013 Rise Set
Actual Time 5:39 AM EDT 8:07 PM EDT
Civil Twilight 5:05 AM EDT 8:40 PM EDT
Nautical Twilight 4:24 AM EDT 9:22 PM EDT
Astronomical Twilight 3:36 AM EDT 10:10 PM EDT
Moon 2:52 AM EDT (5/4) 2:47 PM EDT (5/4)
Length of Visible Light 15h 35m
Length of Day
14h 28m
Waning Crescent, 27% of the Moon is Illuminated
May 4
Waning Crescent
May 9
New
May 18
First Quarter
May 25
Full
May 31
Last Quarter

Hourly Weather History & Observations

Time (EDT) Temp. Windchill Dew Point Humidity Pressure Visibility Wind Dir Wind Speed Gust Speed Precip Events Conditions
12:00 AM 55.4 °F - 41.0 °F 58% 30.35 in 25.0 mi NE 3.5 mph - N/A   Clear
1:00 AM 55.4 °F - 41.0 °F 58% 30.34 in 25.0 mi Calm Calm - N/A   Clear
2:00 AM 55.4 °F - 41.0 °F 58% 30.33 in 25.0 mi NE 2.3 mph - N/A   Clear
3:00 AM 53.6 °F - 41.0 °F 62% 30.32 in 25.0 mi NE 4.6 mph - N/A   Clear
4:00 AM 50.0 °F - 39.2 °F 66% 30.33 in 25.0 mi ENE 3.5 mph - N/A   Clear
5:00 AM 48.2 °F - 39.2 °F 71% 30.33 in 25.0 mi NNE 3.5 mph - N/A   Clear
6:00 AM 44.6 °F 43.1 °F 39.2 °F 81% 30.35 in 45.0 mi NE 3.5 mph - N/A   Partly Cloudy
7:00 AM 50.0 °F - 41.0 °F 71% 30.35 in 45.0 mi ENE 4.6 mph - N/A   Partly Cloudy
8:00 AM 53.6 °F - 41.0 °F 62% 30.36 in 45.0 mi East 5.8 mph - N/A   Clear
9:00 AM 57.2 °F - 42.8 °F 59% 30.36 in 30.0 mi NE 5.8 mph - N/A   Partly Cloudy
10:00 AM 62.6 °F - 44.6 °F 52% 30.36 in 25.0 mi NNE 4.6 mph - N/A   Partly Cloudy
11:00 AM 66.2 °F - 42.8 °F 43% 30.34 in 25.0 mi Variable 2.3 mph - N/A   Partly Cloudy
12:00 PM 69.8 °F - 44.6 °F 40% 30.32 in 25.0 mi NW 3.5 mph - N/A   Partly Cloudy
1:00 PM 71.6 °F - 39.2 °F 31% 30.30 in 25.0 mi SE 4.6 mph - N/A   Partly Cloudy
2:00 PM 73.4 °F - 41.0 °F 31% 30.29 in 45.0 mi Variable 5.8 mph - N/A   Partly Cloudy
3:00 PM 73.4 °F - 41.0 °F 31% 30.26 in 45.0 mi SE 6.9 mph - N/A   Partly Cloudy
4:00 PM 75.2 °F - 41.0 °F 29% 30.24 in 45.0 mi SE 4.6 mph - N/A   Partly Cloudy
5:00 PM 73.4 °F - 39.2 °F 29% 30.23 in 45.0 mi SSE 5.8 mph - N/A   Partly Cloudy
6:00 PM 73.4 °F - 37.4 °F 27% 30.22 in 45.0 mi SE 5.8 mph - N/A   Partly Cloudy
7:00 PM 71.6 °F - 39.2 °F 31% 30.21 in 45.0 mi SSE 4.6 mph - N/A   Clear
8:00 PM 66.2 °F - 35.6 °F 32% 30.22 in 35.0 mi Calm Calm - N/A   Partly Cloudy
9:00 PM 62.6 °F - 37.4 °F 39% 30.22 in 25.0 mi SSE 2.3 mph - N/A   Partly Cloudy
10:00 PM 57.2 °F - 35.6 °F 44% 30.22 in 25.0 mi Calm Calm - N/A   Partly Cloudy
11:00 PM 55.4 °F - 41.0 °F 58% 30.21 in 25.0 mi NNW 3.5 mph - N/A   Partly Cloudy